Weather History for Burnet, TX

Change the Weather History Date:

Thursday, November 22, 2012

  Actual Average Record
Temperature  
Mean Temperature 64 °F -  
Max Temperature 75 °F 64 °F 79 °F (2010)
Min Temperature 54 °F 44 °F 33 °F (2013)
Growing Degree Days 14 (Base 50)    
Moisture  
Dew Point 53 °F    
Average Humidity 70    
Maximum Humidity 93    
Minimum Humidity 48    
Precipitation  
Precipitation 0.00 in - - ()
Sea Level Pressure  
Sea Level Pressure 30.12 in    
Wind  
Wind Speed 5 mph (South)    
Max Wind Speed 17 mph    
Max Gust Speed 29 mph    
Visibility 9 miles    
Events      
Averages and records for this station are not official NWS values.
T = Trace of Precipitation, MM = Missing Value Source: NWS Daily Summary

Daily Weather History Graph

Daily Weather History Graph

Search for Another Location

Airport:

Trip Planner

Search our weather history database for the weather conditions in past years. The results will help you decide how hot, cold, wet, or windy it might be!

Date:

Astronomy

Nov. 22, 2012 Rise Set
Actual Time 7:05 AM CST 5:32 PM CST
Civil Twilight 6:39 AM CST 5:58 PM CST
Nautical Twilight 6:10 AM CST 6:27 PM CST
Astronomical Twilight 5:41 AM CST 6:56 PM CST
Moon 2:00 PM CST (11/22) 1:47 AM CST (11/22)
Length of Visible Light 11h 18m
Length of Day
10h 26m
Waxing Gibbous, 71% of the Moon is Illuminated
Nov 22
Waxing Gibbous
Nov 28
Full
Dec 6
Last Quarter
Dec 13
New
Dec 19
First Quarter

Hourly Weather History & Observations

Time (CST) Temp. Dew Point Humidity Pressure Visibility Wind Dir Wind Speed Gust Speed Precip Events Conditions
12:53 AM 59.0 °F 48.0 °F 67% 30.13 in 10.0 mi Calm Calm - N/A   Clear
1:53 AM 55.9 °F 48.0 °F 75% 30.12 in 10.0 mi Calm Calm - N/A   Clear
2:53 AM 55.0 °F 48.0 °F 77% 30.13 in 10.0 mi South 3.5 mph - N/A   Clear
3:53 AM 54.0 °F 48.9 °F 83% 30.13 in 10.0 mi Calm Calm - N/A   Clear
4:53 AM 54.0 °F 50.0 °F 86% 30.12 in 9.0 mi Calm Calm - N/A   Clear
6:53 AM 55.9 °F 54.0 °F 93% 30.12 in 4.0 mi South 4.6 mph - N/A   Clear
7:11 AM 55.0 °F 53.1 °F 93% 30.16 in 2.5 mi SW 4.6 mph - N/A   Partly Cloudy
7:53 AM 55.9 °F 54.0 °F 93% 30.15 in 3.0 mi Calm Calm - N/A   Clear
8:53 AM 60.1 °F 55.9 °F 86% 30.16 in 6.0 mi South 5.8 mph - N/A   Clear
9:53 AM 64.9 °F 55.9 °F 73% 30.15 in 10.0 mi South 9.2 mph - N/A   Clear
10:53 AM 66.0 °F 55.9 °F 70% 30.16 in 10.0 mi SSW 13.8 mph 23.0 mph N/A   Clear
11:34 AM 68.0 °F 55.9 °F 65% 30.17 in 10.0 mi South 13.8 mph - N/A   Mostly Cloudy
11:44 AM 68.0 °F 55.9 °F 65% 30.16 in 10.0 mi SSW 15.0 mph - N/A   Scattered Clouds
11:53 AM 69.1 °F 55.0 °F 61% 30.14 in 10.0 mi South 12.7 mph 24.2 mph N/A   Partly Cloudy
12:53 PM 72.0 °F 55.0 °F 55% 30.10 in 10.0 mi South 13.8 mph 23.0 mph N/A   Mostly Cloudy
1:53 PM 73.9 °F 54.0 °F 50% 30.07 in 10.0 mi SSW 17.3 mph 24.2 mph N/A   Partly Cloudy
2:53 PM 75.0 °F 54.0 °F 48% 30.04 in 10.0 mi SSW 17.3 mph 28.8 mph N/A   Scattered Clouds
3:53 PM 73.9 °F 54.0 °F 50% 30.04 in 10.0 mi South 12.7 mph 23.0 mph N/A   Clear
4:53 PM 73.9 °F 54.0 °F 50% 30.05 in 10.0 mi South 9.2 mph - N/A   Clear
5:53 PM 71.1 °F 54.0 °F 55% 30.06 in 10.0 mi South 6.9 mph - N/A   Clear
6:53 PM 69.1 °F 54.0 °F 58% 30.07 in 10.0 mi South 5.8 mph - N/A   Clear
7:53 PM 64.9 °F 54.0 °F 68% 30.10 in 10.0 mi SSW 3.5 mph - N/A   Clear
8:53 PM 63.0 °F 53.1 °F 70% 30.11 in 10.0 mi Calm Calm - N/A   Clear
9:53 PM 61.0 °F 53.1 °F 75% 30.12 in 10.0 mi Calm Calm - N/A   Clear
10:53 PM 62.1 °F 53.1 °F 72% 30.12 in 10.0 mi SSW 4.6 mph - N/A   Clear
11:53 PM 59.0 °F 52.0 °F 78% 30.13 in 10.0 mi Calm Calm - N/A   Clear